Terug naar catalogus

FENGYUN 1C DEB

ActiefSSO
NORAD 33612·DEBRIS·🇨🇳 China

Gelanceerd May 10, 1999 vanaf Taiyuan Satellite Launch Center

Loading…

Volgende Passages (komende 24 uur)

TLE

VerouderdSource: Space-Track

Epoch: Aug 31, 2026, 02:42 UTC

1 33612U 99025DCV 26243.11293907  .00001660  00000-0  99494-3 0  9990
2 33612  98.6111 203.9568 0111407  91.6923 269.7009 14.05219232603438

Volg FENGYUN 1C DEB in realtime met AllMySat

Download on the App Store